KC7NGC-B Weather Reports


time (UTC)temp
F
wind
direction
speed
knots
gust
knots
rain 1hr
in
rain 24hr
in
rain mn
in
humidity
%
barometer
mb
20260904132617 51 253 0.9 1.7 0.00 0.00 0.00 1 1013.5
20260904131634 51 316 2.6 3.5 0.00 0.00 0.00 1 1013.5
20260904130629 51 292 2.6 3.5 0.00 0.00 0.00 1 1013.5
20260904125624 52 270 1.7 2.6 0.00 0.00 0.00 1 1013.4
20260904124701 52 198 1.7 2.6 0.00 0.00 0.00 1 1013.4
20260904123616 51 251 1.7 2.6 0.00 0.00 0.00 1 1013.4
20260904122633 53 190 3.5 4.3 0.00 0.00 0.00 1 1013.3
20260904121709 52 297 0.9 2.6 0.00 0.00 0.00 1 1013.2
20260904120625 53 39 0.9 1.7 0.00 0.00 0.00 1 1013.1
20260904115622 52 181 0.9 1.7 0.00 0.00 0.00 1 1013.0
20260904114618 51 204 3.5 5.2 0.00 0.00 0.00 1 1013.0
20260904113635 51 281 1.7 2.6 0.00 0.00 0.00 1 1012.7
20260904112631 51 351 1.7 3.5 0.00 0.00 0.00 1 1012.8
20260904111627 50 272 0.9 0.9 0.00 0.00 0.00 1 1012.8
20260904110623 50 327 0.0 1.7 0.00 0.00 0.00 1 1012.7
20260904105632 52 316 2.6 3.5 0.00 0.00 0.00 1 1012.6
20260904104628 50 0.0 0.9 0.00 0.00 0.00 1 1012.5
20260904103624 51 293 2.6 2.6 0.00 0.00 0.00 1 1012.2
20260904102620 50 237 1.7 2.6 0.00 0.00 0.00 1 1012.1
20260904101616 51 239 1.7 3.5 0.00 0.00 0.00 1 1012.0
20260904100633 51 274 0.9 1.7 0.00 0.00 0.00 1 1011.8
20260904095629 52 0.0 0.9 0.00 0.00 0.00 1 1011.8
20260904094625 52 291 1.7 1.7 0.00 0.00 0.00 1 1011.8
20260904093621 53 0.0 0.0 0.00 0.00 0.00 1 1011.6
20260904092617 53 214 0.9 1.7 0.00 0.00 0.00 1 1011.5
20260904091633 53 0.0 0.0 0.00 0.00 0.00 1 1011.6
20260904090629 53 244 0.9 0.9 0.00 0.00 0.00 1 1011.4
20260904085625 52 332 1.7 2.6 0.00 0.00 0.00 1 1011.6
20260904084641 54 333 0.9 1.7 0.00 0.00 0.00 1 1011.6
20260904083617 54 300 1.7 1.7 0.00 0.00 0.00 1 1011.6
20260904082633 56 0.0 0.9 0.00 0.00 0.00 1 1011.4
20260904081629 56 92 0.0 0.9 0.00 0.00 0.00 1 1011.5
20260904080625 56 220 0.0 0.9 0.00 0.00 0.00 1 1011.5
20260904075621 57 174 2.6 4.3 0.00 0.00 0.00 1 1011.5
20260904074617 57 0.0 2.6 0.00 0.00 0.00 1 1011.6
20260904073633 57 0.0 0.9 0.00 0.00 0.00 1 1011.6
20260904072629 57 229 1.7 1.7 0.00 0.00 0.00 1 1011.7
20260904071626 58 3 1.7 1.7 0.00 0.00 0.00 1 1011.7
20260904070641 60 189 1.7 2.6 0.00 0.00 0.00 1 1011.6
20260904065617 60 175 2.6 4.3 0.00 0.00 0.00 1 1011.5
20260904064634 60 187 3.5 5.2 0.00 0.00 0.00 1 1011.5
20260904063630 60 167 6.1 11.3 0.00 0.00 0.00 1 1011.2
20260904062626 60 175 6.1 7.8 0.00 0.00 0.00 1 1011.3
20260904061622 60 179 4.3 5.2 0.00 0.00 0.00 1 1011.4
20260904060619 59 317 1.7 2.6 0.00 0.01 0.00 1 1011.4
20260904055635 59 295 1.7 1.7 0.00 0.01 0.00 1 1011.2
20260904054631 59 340 1.7 1.7 0.00 0.01 0.00 1 1011.2
20260904053627 60 189 1.7 2.6 0.00 0.01 0.00 1 1011.1
20260904052623 60 245 0.9 1.7 0.00 0.01 0.00 1 1011.1
20260904051619 59 193 1.7 2.6 0.00 0.01 0.00 1 1011.1
20260904050636 60 178 0.9 1.7 0.00 0.01 0.00 1 1011.0
20260904045652 60 182 0.9 3.5 0.00 0.01 0.00 1 1011.1
20260904044628 61 153 2.6 3.5 0.00 0.01 0.00 1 1010.9
20260904043624 62 183 2.6 3.5 0.00 0.01 0.00 1 1011.0
20260904042640 63 167 1.7 2.6 0.00 0.01 0.00 1 1011.0
20260904041617 64 172 2.6 5.2 0.00 0.02 0.00 1 1010.8
20260904040633 63 144 0.9 2.6 0.00 0.02 0.00 1 1010.7
20260904035629 64 162 2.6 7.0 0.00 0.02 0.00 1 1010.5
20260904034625 63 161 4.3 7.0 0.00 0.02 0.00 1 1010.4
20260904033641 64 181 3.5 4.3 0.00 0.02 0.00 1 1010.6
20260904032617 64 188 4.3 5.2 0.00 0.02 0.00 1 1010.4
20260904031633 63 166 1.7 2.6 0.00 0.02 0.00 1 1010.4
20260904030629 64 177 1.7 2.6 0.00 0.02 0.00 1 1010.2
20260904025625 65 183 2.6 3.5 0.00 0.02 0.00 1 1010.2
20260904024621 64 186 0.9 1.7 0.00 0.02 0.00 1 1010.1
20260904023618 64 177 1.7 2.6 0.00 0.02 0.00 1 1009.9
20260904022654 64 189 2.6 3.5 0.00 0.02 0.00 1 1009.8
20260904021629 64 164 0.9 1.7 0.00 0.02 0.00 1 1010.0
20260904020625 64 186 1.7 2.6 0.00 0.02 0.00 1 1010.0
20260904015621 65 118 0.9 1.7 0.00 0.02 0.00 1 1010.1
20260904014617 65 108 0.9 2.6 0.00 0.02 0.00 1 1010.1
20260904013653 65 178 2.6 3.5 0.00 0.02 0.00 1 1010.3
20260904012630 65 181 0.9 2.6 0.00 0.02 0.00 1 1010.3
20260904011625 65 204 2.6 3.5 0.00 0.02 0.00 1 1010.3
20260904010622 65 207 3.5 5.2 0.00 0.02 0.00 1 1010.2
20260904005618 66 180 2.6 3.5 0.00 0.02 0.00 1 1010.2
20260904004634 66 222 4.3 4.3 0.00 0.02 0.00 1 1010.2
20260904003630 66 169 3.5 3.5 0.00 0.02 0.00 1 1010.4
20260904002627 66 170 3.5 4.3 0.00 0.02 0.00 1 1010.4
20260904001622 66 198 3.5 3.5 0.00 0.02 0.00 1 1010.7
20260904000619 66 174 5.2 7.0 0.00 0.02 0.00 1 1010.7
20260903235655 66 203 2.6 3.5 0.00 0.02 0.00 1 1010.8
20260903234651 66 192 2.6 3.5 0.00 0.02 0.00 1 1010.7
20260903233626 66 194 4.3 7.8 0.00 0.02 0.00 1 1010.7
20260903232623 67 185 5.2 7.8 0.00 0.02 0.00 1 1010.7
20260903231639 68 214 3.5 4.3 0.00 0.02 0.00 1 1010.9
20260903230635 68 184 4.3 7.0 0.00 0.02 0.00 1 1010.9
20260903225631 68 194 2.6 4.3 0.00 0.02 0.00 1 1011.0
20260903224707 68 172 2.6 4.3 0.00 0.02 0.00 1 1011.2
20260903223623 68 200 3.5 7.0 0.00 0.02 0.00 1 1011.2
20260903222620 67 230 1.7 3.5 0.00 0.02 0.00 1 1011.4
20260903221656 66 176 5.2 7.8 0.00 0.02 0.00 1 1011.5
20260903220652 67 177 5.2 6.1 0.00 0.02 0.00 1 1011.4
20260903215628 66 215 2.6 4.3 0.00 0.02 0.00 1 1011.4
20260903214624 67 213 2.6 7.0 0.00 0.02 0.00 1 1011.6
20260903213620 66 274 3.5 6.1 0.00 0.02 0.00 1 1011.6
20260903212621 66 208 5.2 9.6 0.00 0.02 0.00 1 1012.0
20260903211652 66 199 3.5 5.2 0.00 0.02 0.00 1 1012.0
20260903210628 66 237 6.1 9.6 0.00 0.02 0.00 1 1011.7
20260903205625 66 214 6.1 8.7 0.00 0.02 0.00 1 1012.0
20260903204641 65 277 5.2 8.7 0.00 0.02 0.00 1 1011.8
20260903203617 65 212 8.7 11.3 0.00 0.02 0.00 1 1012.1
20260903202633 65 217 4.3 7.0 0.00 0.02 0.00 1 1012.1
20260903201629 65 168 2.6 3.5 0.00 0.02 0.00 1 1012.2
20260903200630 65 212 3.5 5.2 0.00 0.02 0.00 1 1012.4
20260903195622 64 173 4.3 5.2 0.00 0.02 0.00 1 1012.3
20260903194617 63 217 2.6 4.3 0.00 0.02 0.00 1 1012.5
20260903193633 64 189 3.5 6.1 0.00 0.02 0.00 1 1012.5
20260903192629 63 228 3.5 7.0 0.00 0.02 0.00 1 1012.7
20260903191625 64 234 3.5 5.2 0.00 0.02 0.00 1 1012.7
20260903190642 64 190 3.5 5.2 0.00 0.02 0.00 1 1012.9
20260903185618 64 184 4.3 7.0 0.00 0.02 0.00 1 1013.0
20260903184634 64 193 2.6 4.3 0.00 0.02 0.00 1 1012.8
20260903183711 64 186 3.5 4.3 0.00 0.02 0.00 1 1013.0
20260903182626 63 208 6.1 9.6 0.00 0.02 0.00 1 1012.9
20260903181642 63 198 4.3 7.0 0.00 0.02 0.00 1 1012.9
20260903180619 63 194 3.5 6.1 0.00 0.02 0.00 1 1012.9
20260903175655 62 203 5.2 8.7 0.00 0.02 0.00 1 1012.9
20260903174631 62 207 3.5 5.2 0.00 0.02 0.00 1 1012.9
20260903173647 62 212 4.3 7.0 0.00 0.02 0.00 1 1013.0
20260903172622 62 207 2.6 5.2 0.00 0.02 0.00 1 1012.8
20260903171621 62 217 8.7 9.6 0.00 0.02 0.00 1 1012.9
20260903170635 62 233 5.2 8.7 0.00 0.02 0.00 1 1012.9
20260903165630 62 225 4.3 5.2 0.00 0.02 0.00 1 1013.0
20260903164626 62 162 2.6 3.5 0.00 0.02 0.00 1 1013.0
20260903163703 59 215 1.7 2.6 0.00 0.02 0.00 1 1013.0
20260903162618 60 191 4.3 7.8 0.00 0.02 0.00 1 1013.0
20260903161635 59 166 3.5 5.2 0.00 0.02 0.00 1 1013.1
20260903160631 59 178 3.5 5.2 0.00 0.02 0.00 1 1013.0
20260903155627 59 228 4.3 8.7 0.00 0.02 0.00 1 1012.8
20260903154623 59 200 3.5 5.2 0.00 0.02 0.00 1 1012.7
20260903153619 58 172 5.2 7.8 0.00 0.02 0.00 1 1012.7
20260903152619 57 183 9.6 13.9 0.00 0.02 0.00 1 1012.6
20260903151633 57 177 6.1 9.6 0.00 0.02 0.00 1 1012.7
20260903150628 57 190 6.1 9.6 0.00 0.02 0.00 1 1012.5
20260903145645 57 185 7.8 12.2 0.00 0.02 0.00 1 1012.5
20260903144621 56 196 7.0 9.6 0.00 0.02 0.00 1 1012.6
20260903143617 56 179 6.1 10.4 0.00 0.02 0.00 1 1012.4
20260903142634 55 184 7.0 9.6 0.00 0.02 0.00 1 1012.6
20260903141630 55 191 6.1 10.4 0.00 0.02 0.00 1 1012.6
20260903140626 54 204 7.0 11.3 0.00 0.02 0.00 1 1012.3
20260903135622 54 211 6.1 9.6 0.00 0.02 0.00 1 1012.3
20260903134617 54 210 4.3 7.8 0.00 0.02 0.00 1 1012.3
20260903133714 54 221 7.0 11.3 0.00 0.02 0.00 1 1012.2